Location: Unspecified
(40.7945°N, 111.1337°W)
Time: 16:24:47
(UTC-06:00)

Vanguard 1 - Pass Details

Date: 22 June 2019
Orbit: 653 x 3830 km, 34.3° (Epoch: 15 July)

Event Time Altitude Azimuth Distance (km) Brightness Sun altitude
Exits shadow 01:51:43 29° 163° (SSE) 4,828 13.0 -25.5°
Maximum altitude 01:55:06 30° 148° (SSE) 4,523 13.0 -25.4°
Drops below altitude 10° 02:07:11 10° 95° (E) 4,879 13.7 -25.1°
Sets 02:10:54 0° 84° (E) 5,467 14.1 -24.9°
